Location: Newark
(7.0858°N, 171.3717°E)
Time: 21:54:38
(UTC+00:00)

Vanguard 2 - Pass Details

Date: 02 December 2020
Orbit: 553 x 2937 km, 32.9° (Epoch: 19 January)

Event Time Altitude Azimuth Distance (km) Brightness Sun altitude
Rises 14:25:15 0° 212° (SSW) 6,713 12.3 -57.2°
Reaches altitude 10° 14:31:22 10° 199° (SSW) 5,766 12.0 -55.9°
Maximum altitude 14:44:08 24° 153° (SSE) 4,465 11.5 -53.1°
Drops below altitude 10° 14:54:59 10° 106° (ESE) 4,914 12.1 -50.7°
Sets 14:59:29 0° 93° (E) 5,561 12.5 -49.7°
